Kaneohe MCBH, HI

4:54 AM HST on April 24, 2017 (GMT -1000)
Kaneohe Bay Marine Corps Air Facility

Weather History for PHNG - October, 2012

Change the Weather History Date:

Monday, October 22, 2012

  Actual Average Record
Temperature  
Mean Temperature 78 °F -  
Max Temperature 82 °F 81 °F 84 °F (1997)
Min Temperature 75 °F 72 °F 46 °F (1999)
Cooling Degree Days 14    
Growing Degree Days 28 (Base 50)    
Moisture  
Dew Point 67 °F    
Average Humidity 68    
Maximum Humidity 78    
Minimum Humidity 59    
Precipitation  
Precipitation 0.00 in - - ()
Sea Level Pressure  
Sea Level Pressure 29.97 in    
Wind  
Wind Speed 8 mph (East)    
Max Wind Speed 12 mph    
Max Gust Speed 23 mph    
Visibility 9 miles    
Events      
Averages and records for this station are not official NWS values.
T = Trace of Precipitation, MM = Missing Value Source: NWS Daily Summary

Daily Weather History Graph

Daily Weather History Graph

Search for Another Location

Airport or City:

Trip Planner

Search our weather history database for the weather conditions in past years. The results will help you decide how hot, cold, wet, or windy it might be!

Date:

Astronomy

Oct. 22, 2012 Rise Set
Actual Time 6:29 AM HST 6:00 PM HST
Civil Twilight 6:07 AM HST 6:23 PM HST
Nautical Twilight 5:41 AM HST 6:49 PM HST
Astronomical Twilight 5:15 AM HST 7:15 PM HST
Moon 1:31 PM HST (10/22) 12:18 AM HST (10/22)
Length of Visible Light 12h 16m
Length of Day
11h 30m
First Quarter, 58% of the Moon is Illuminated
Oct 22
First Quarter
Oct 29
Full
Nov 6
Last Quarter
Nov 13
New
Nov 20
First Quarter

Hourly Weather History & Observations

Time (HST) Temp. Heat Index Dew Point Humidity Pressure Visibility Wind Dir Wind Speed Gust Speed Precip Events Conditions
12:57 AM 77.0 °F - 66.9 °F 71% 29.98 in 10.0 mi Variable 5.8 mph - N/A   Clear
1:52 AM 77.0 °F - 66.2 °F 69% 29.98 in 10.0 mi East 8.1 mph - N/A   Mostly Cloudy
1:57 AM 77.0 °F - 66.0 °F 69% 29.97 in 10.0 mi East 6.9 mph - N/A   Mostly Cloudy
2:29 AM 77.0 °F - 66.2 °F 69% 29.98 in 6.2 mi ENE 8.1 mph - N/A   Mostly Cloudy
2:57 AM 77.0 °F - 66.9 °F 71% 29.96 in 10.0 mi East 6.9 mph 16.1 mph N/A   Mostly Cloudy
3:09 AM 77.0 °F - 66.2 °F 69% 29.97 in 6.2 mi Variable 4.6 mph - N/A   Scattered Clouds
3:16 AM 77.0 °F - 66.2 °F 69% 29.97 in 6.2 mi East 9.2 mph - N/A   Mostly Cloudy
3:41 AM 77.0 °F - 66.2 °F 69% 29.97 in 6.2 mi East 6.9 mph 17.3 mph N/A   Mostly Cloudy
3:57 AM 77.0 °F - 66.9 °F 71% 29.95 in 10.0 mi East 5.8 mph - N/A   Mostly Cloudy
4:57 AM 75.2 °F - 68.0 °F 78% 29.96 in 10.0 mi East 9.2 mph - N/A   Partly Cloudy
5:57 AM 75.2 °F - 66.0 °F 73% 29.97 in 10.0 mi Variable 6.9 mph - N/A   Scattered Clouds
6:57 AM 75.2 °F - 66.0 °F 73% 29.98 in 10.0 mi ESE 3.5 mph - N/A   Clear
7:57 AM 78.8 °F - 68.0 °F 69% 30.00 in 10.0 mi ENE 9.2 mph - N/A   Partly Cloudy
8:57 AM 79.2 °F - 66.9 °F 66% 30.01 in 10.0 mi East 10.4 mph - N/A   Scattered Clouds
9:57 AM 79.7 °F - 68.0 °F 67% 30.01 in 10.0 mi East 9.2 mph 16.1 mph N/A   Mostly Cloudy
10:57 AM 81.5 °F 83.9 °F 66.9 °F 61% 30.00 in 10.0 mi ENE 9.2 mph 16.1 mph N/A   Scattered Clouds
11:05 AM 82.4 °F 85.4 °F 68.0 °F 62% 30.01 in 6.2 mi ENE 9.2 mph 17.3 mph N/A   Mostly Cloudy
11:20 AM 82.4 °F 85.4 °F 68.0 °F 62% 30.00 in 6.2 mi ENE 10.4 mph 18.4 mph N/A   Scattered Clouds
11:57 AM 81.5 °F 84.2 °F 68.0 °F 63% 29.97 in 10.0 mi East 9.2 mph 17.3 mph N/A   Partly Cloudy
12:57 PM 82.4 °F 84.8 °F 66.9 °F 59% 29.95 in 10.0 mi East 10.4 mph 18.4 mph N/A   Mostly Cloudy
1:57 PM 82.8 °F 85.8 °F 68.0 °F 61% 29.92 in 10.0 mi ENE 10.4 mph 18.4 mph N/A   Mostly Cloudy
2:57 PM 81.5 °F 83.9 °F 66.9 °F 61% 29.91 in 10.0 mi East 10.4 mph - N/A   Scattered Clouds
3:57 PM 79.2 °F - 66.7 °F 66% 29.90 in 10.0 mi ENE 11.5 mph 18.4 mph N/A   Partly Cloudy
4:57 PM 79.2 °F - 66.0 °F 64% 29.91 in 10.0 mi East 8.1 mph 17.3 mph N/A   Mostly Cloudy
5:57 PM 77.7 °F - 66.9 °F 69% 29.92 in 10.0 mi East 9.2 mph 19.6 mph N/A   Mostly Cloudy
6:57 PM 77.4 °F - 64.9 °F 65% 29.94 in 10.0 mi East 10.4 mph 17.3 mph N/A   Mostly Cloudy
7:57 PM 77.0 °F - 66.0 °F 69% 29.96 in 10.0 mi East 9.2 mph 23.0 mph N/A   Clear
8:57 PM 76.3 °F - 64.9 °F 68% 29.98 in 10.0 mi East 8.1 mph - N/A   Scattered Clouds
9:57 PM 75.9 °F - 66.0 °F 71% 29.98 in 10.0 mi East 6.9 mph 16.1 mph N/A   Scattered Clouds
10:57 PM 75.9 °F - 66.9 °F 74% 29.98 in 10.0 mi East 9.2 mph 16.1 mph N/A   Scattered Clouds
11:57 PM 75.6 °F - 66.0 °F 72% 29.97 in 10.0 mi East 6.9 mph - N/A   Overcast